Time,TemperatureF,DewpointF,PressureIn,WindDirection,WindDirectionDegrees,WindSpeedMPH,WindSpeedGustMPH,Humidity,HourlyPrecipIn,Conditions,Clouds,dailyrainin,SoftwareType,DateUTC
2013-11-03 00:04:00,25.6,22.8,30.25,NNW,343,0.0,0.0,89,0.00,,,0.00,Wunderground v.1.15,2013-11-03 05:04:00,
2013-11-03 00:14:00,25.4,22.6,30.25,NNW,343,0.0,0.0,89,0.00,,,0.00,Wunderground v.1.15,2013-11-03 05:14:00,
2013-11-03 00:19:00,25.4,22.6,30.26,NNW,342,0.0,0.0,89,0.00,,,0.00,Wunderground v.1.15,2013-11-03 05:19:00,
2013-11-03 00:24:00,25.3,22.5,30.26,NNW,343,0.0,0.0,89,0.00,,,0.00,Wunderground v.1.15,2013-11-03 05:24:00,
2013-11-03 00:29:00,25.2,22.4,30.26,NNW,343,0.0,0.0,89,0.00,,,0.00,Wunderground v.1.15,2013-11-03 05:29:00,
2013-11-03 00:39:00,25.0,22.2,30.27,NNW,343,0.0,0.0,89,0.00,,,0.00,Wunderground v.1.15,2013-11-03 05:39:00,
2013-11-03 00:44:00,24.8,22.0,30.27,NNW,343,0.0,0.0,89,0.00,,,0.00,Wunderground v.1.15,2013-11-03 05:44:00,
2013-11-03 00:54:00,24.7,21.9,30.28,NNW,342,0.0,0.0,89,0.00,,,0.00,Wunderground v.1.15,2013-11-03 05:54:00,
2013-11-03 01:00:00,24.6,21.8,30.28,NNW,342,0.0,0.0,89,0.00,,,0.00,Wunderground v.1.15,2013-11-03 06:00:00,
2013-11-03 01:05:00,24.5,21.7,30.28,NNW,342,0.0,0.0,89,0.00,,,0.00,Wunderground v.1.15,2013-11-03 06:05:00,
2013-11-03 01:15:00,24.4,21.6,30.28,NNW,343,0.0,0.0,89,0.00,,,0.00,Wunderground v.1.15,2013-11-03 06:15:00,
2013-11-03 01:25:00,24.3,21.5,30.28,NNW,343,0.0,0.0,89,0.00,,,0.00,Wunderground v.1.15,2013-11-03 06:25:00,
2013-11-03 01:30:00,24.2,21.4,30.28,NNW,343,0.0,0.0,89,0.00,,,0.00,Wunderground v.1.15,2013-11-03 06:30:00,
2013-11-03 01:35:00,24.1,21.3,30.29,NNW,343,0.0,0.0,89,0.00,,,0.00,Wunderground v.1.15,2013-11-03 06:35:00,
2013-11-03 01:40:00,24.0,21.2,30.29,NNW,343,0.0,0.0,89,0.00,,,0.00,Wunderground v.1.15,2013-11-03 06:40:00,
2013-11-03 01:45:00,23.9,21.1,30.29,NNW,343,0.0,0.0,89,0.00,,,0.00,Wunderground v.1.15,2013-11-03 06:45:00,
2013-11-03 01:55:00,23.8,21.0,30.29,NNW,343,0.0,0.0,89,0.00,,,0.00,Wunderground v.1.15,2013-11-03 06:55:00,
2013-11-03 01:00:00,23.8,21.0,30.30,NNW,342,0.0,0.0,89,0.00,,,0.00,Wunderground v.1.15,2013-11-03 07:00:00,
2013-11-03 01:05:00,23.7,20.9,30.30,NNW,343,0.0,0.0,89,0.00,,,0.00,Wunderground v.1.15,2013-11-03 07:05:00,
2013-11-03 01:10:00,23.8,21.0,30.30,NNW,343,0.0,0.0,89,0.00,,,0.00,Wunderground v.1.15,2013-11-03 07:10:00,
2013-11-03 01:20:00,23.8,21.0,30.31,NNW,342,0.0,0.0,89,0.00,,,0.00,Wunderground v.1.15,2013-11-03 07:20:00,
2013-11-03 01:25:00,23.7,20.9,30.31,NNW,343,0.0,0.0,89,0.00,,,0.00,Wunderground v.1.15,2013-11-03 07:25:00,
2013-11-03 01:30:00,23.6,20.8,30.31,NNW,342,0.0,0.0,89,0.00,,,0.00,Wunderground v.1.15,2013-11-03 07:30:00,
2013-11-03 01:35:00,23.5,20.7,30.31,NNW,343,0.0,0.0,89,0.00,,,0.00,Wunderground v.1.15,2013-11-03 07:35:00,
2013-11-03 01:45:00,23.4,20.6,30.31,NNW,342,0.0,0.0,89,0.00,,,0.00,Wunderground v.1.15,2013-11-03 07:45:00,
2013-11-03 01:50:00,23.4,20.6,30.31,NNW,343,0.0,0.0,89,0.00,,,0.00,Wunderground v.1.15,2013-11-03 07:50:00,
2013-11-03 01:55:00,23.4,20.6,30.31,NNW,343,0.0,0.0,89,0.00,,,0.00,Wunderground v.1.15,2013-11-03 07:55:00,
2013-11-03 02:00:00,23.3,20.5,30.31,NNW,342,0.0,0.0,89,0.00,,,0.00,Wunderground v.1.15,2013-11-03 08:00:00,
2013-11-03 02:05:00,23.2,20.4,30.31,NNW,342,0.0,0.0,89,0.00,,,0.00,Wunderground v.1.15,2013-11-03 08:05:00,
2013-11-03 02:15:00,23.0,20.2,30.32,NNW,343,0.0,0.0,89,0.00,,,0.00,Wunderground v.1.15,2013-11-03 08:15:00,
2013-11-03 02:20:00,22.9,20.1,30.32,NNW,342,0.0,0.0,89,0.00,,,0.00,Wunderground v.1.15,2013-11-03 08:20:00,
2013-11-03 02:30:00,22.9,20.1,30.32,NNW,343,0.0,0.0,89,0.00,,,0.00,Wunderground v.1.15,2013-11-03 08:30:00,
2013-11-03 02:35:00,22.9,20.1,30.32,NNW,342,0.0,0.0,89,0.00,,,0.00,Wunderground v.1.15,2013-11-03 08:35:00,
2013-11-03 02:40:00,22.8,20.0,30.32,NNW,342,0.0,0.0,89,0.00,,,0.00,Wunderground v.1.15,2013-11-03 08:40:00,
2013-11-03 02:45:00,22.8,20.0,30.32,NNW,343,0.0,0.0,89,0.00,,,0.00,Wunderground v.1.15,2013-11-03 08:45:00,
2013-11-03 02:55:00,22.7,19.9,30.32,NNW,342,0.0,0.0,89,0.00,,,0.00,Wunderground v.1.15,2013-11-03 08:55:00,
2013-11-03 03:00:00,22.6,19.8,30.32,NNW,343,0.0,0.0,89,0.00,,,0.00,Wunderground v.1.15,2013-11-03 09:00:00,
2013-11-03 03:05:00,22.6,19.8,30.32,NNW,343,0.0,0.0,89,0.00,,,0.00,Wunderground v.1.15,2013-11-03 09:05:00,
2013-11-03 03:15:00,22.5,19.7,30.32,NNW,343,0.0,0.0,89,0.00,,,0.00,Wunderground v.1.15,2013-11-03 09:15:00,
2013-11-03 03:20:00,22.5,19.7,30.32,NNW,342,0.0,0.0,89,0.00,,,0.00,Wunderground v.1.15,2013-11-03 09:20:00,
2013-11-03 03:30:00,22.4,19.6,30.33,NNW,343,0.0,0.0,89,0.00,,,0.00,Wunderground v.1.15,2013-11-03 09:30:00,
2013-11-03 03:35:00,22.3,19.6,30.32,NNW,343,0.0,0.0,89,0.00,,,0.00,Wunderground v.1.15,2013-11-03 09:35:00,
2013-11-03 03:40:00,22.2,19.5,30.32,NNW,342,0.0,0.0,89,0.00,,,0.00,Wunderground v.1.15,2013-11-03 09:40:00,
2013-11-03 03:50:00,22.1,19.4,30.32,NNW,343,0.0,0.0,89,0.00,,,0.00,Wunderground v.1.15,2013-11-03 09:50:00,
2013-11-03 03:55:00,22.0,19.3,30.33,NNW,343,0.0,0.0,89,0.00,,,0.00,Wunderground v.1.15,2013-11-03 09:55:00,
2013-11-03 04:00:00,22.0,19.3,30.33,NNW,343,0.0,0.0,89,0.00,,,0.00,Wunderground v.1.15,2013-11-03 10:00:00,
2013-11-03 04:05:00,21.9,19.2,30.33,NNW,342,0.0,0.0,89,0.00,,,0.00,Wunderground v.1.15,2013-11-03 10:05:00,
2013-11-03 04:15:00,21.7,19.0,30.33,NNW,342,0.0,0.0,89,0.00,,,0.00,Wunderground v.1.15,2013-11-03 10:15:00,
2013-11-03 04:20:00,21.6,18.9,30.33,NNW,343,0.0,0.0,89,0.00,,,0.00,Wunderground v.1.15,2013-11-03 10:20:00,
2013-11-03 04:30:00,21.5,18.8,30.33,NNW,342,0.0,0.0,89,0.00,,,0.00,Wunderground v.1.15,2013-11-03 10:30:00,
2013-11-03 04:35:00,21.4,18.7,30.33,NNW,343,0.0,0.0,89,0.00,,,0.00,Wunderground v.1.15,2013-11-03 10:35:00,
2013-11-03 04:40:00,21.3,18.6,30.33,NNW,343,0.0,0.0,89,0.00,,,0.00,Wunderground v.1.15,2013-11-03 10:40:00,
2013-11-03 04:45:00,21.3,18.6,30.33,NNW,342,0.0,0.0,89,0.00,,,0.00,Wunderground v.1.15,2013-11-03 10:45:00,
2013-11-03 04:55:00,21.3,18.6,30.34,NNW,342,0.0,0.0,89,0.00,,,0.00,Wunderground v.1.15,2013-11-03 10:55:00,
2013-11-03 05:00:00,21.3,18.6,30.34,NNW,343,0.0,0.0,89,0.00,,,0.00,Wunderground v.1.15,2013-11-03 11:00:00,
2013-11-03 05:05:00,21.2,18.5,30.34,NNW,343,0.0,0.0,89,0.00,,,0.00,Wunderground v.1.15,2013-11-03 11:05:00,
2013-11-03 05:15:00,21.1,18.4,30.35,NNW,343,0.0,0.0,89,0.00,,,0.00,Wunderground v.1.15,2013-11-03 11:15:00,
2013-11-03 05:20:00,21.1,18.4,30.35,NNW,342,0.0,0.0,89,0.00,,,0.00,Wunderground v.1.15,2013-11-03 11:20:00,
2013-11-03 05:25:00,21.0,18.3,30.35,NNW,342,0.0,0.0,89,0.00,,,0.00,Wunderground v.1.15,2013-11-03 11:25:00,
2013-11-03 05:35:00,21.0,18.3,30.35,NNW,343,0.0,0.0,89,0.00,,,0.00,Wunderground v.1.15,2013-11-03 11:35:00,
2013-11-03 05:40:00,20.9,18.2,30.36,NNW,343,0.0,0.0,89,0.00,,,0.00,Wunderground v.1.15,2013-11-03 11:40:00,
2013-11-03 05:45:00,20.9,18.2,30.36,NNW,343,0.0,0.0,89,0.00,,,0.00,Wunderground v.1.15,2013-11-03 11:45:00,
2013-11-03 05:50:00,20.8,18.1,30.36,NNW,343,0.0,0.0,89,0.00,,,0.00,Wunderground v.1.15,2013-11-03 11:50:00,
2013-11-03 06:00:00,20.8,18.1,30.36,NNW,343,0.0,0.0,89,0.00,,,0.00,Wunderground v.1.15,2013-11-03 12:00:00,
2013-11-03 06:05:00,20.7,18.0,30.36,NNW,343,0.0,0.0,89,0.00,,,0.00,Wunderground v.1.15,2013-11-03 12:05:00,
2013-11-03 06:15:00,20.6,17.9,30.36,NNW,343,0.0,0.0,89,0.00,,,0.00,Wunderground v.1.15,2013-11-03 12:15:00,
2013-11-03 06:20:00,20.4,17.7,30.36,NNW,343,0.0,0.0,89,0.00,,,0.00,Wunderground v.1.15,2013-11-03 12:20:00,
2013-11-03 06:30:00,20.3,17.6,30.36,NNW,342,0.0,0.0,89,0.00,,,0.00,Wunderground v.1.15,2013-11-03 12:30:00,
2013-11-03 06:35:00,20.3,17.8,30.36,NNW,342,0.0,0.0,90,0.00,,,0.00,Wunderground v.1.15,2013-11-03 12:35:00,
2013-11-03 06:40:00,20.2,17.7,30.36,NNW,343,0.0,0.0,90,0.00,,,0.00,Wunderground v.1.15,2013-11-03 12:40:00,
2013-11-03 06:45:00,20.2,17.5,30.36,NNW,343,0.0,0.0,89,0.00,,,0.00,Wunderground v.1.15,2013-11-03 12:45:00,
2013-11-03 06:50:00,20.2,17.5,30.36,NNW,343,0.0,0.0,89,0.00,,,0.00,Wunderground v.1.15,2013-11-03 12:50:00,
2013-11-03 07:00:00,20.3,17.6,30.37,NNW,342,0.0,0.0,89,0.00,,,0.00,Wunderground v.1.15,2013-11-03 13:00:00,
2013-11-03 07:05:00,20.5,17.8,30.37,NNW,343,0.0,0.0,89,0.00,,,0.00,Wunderground v.1.15,2013-11-03 13:05:00,
2013-11-03 07:15:00,20.7,18.0,30.37,NNW,343,0.0,0.0,89,0.00,,,0.00,Wunderground v.1.15,2013-11-03 13:15:00,
2013-11-03 07:20:00,20.9,18.2,30.37,NNW,343,0.0,0.0,89,0.00,,,0.00,Wunderground v.1.15,2013-11-03 13:20:00,
2013-11-03 07:25:00,21.2,18.5,30.38,NNW,343,0.0,0.0,89,0.00,,,0.00,Wunderground v.1.15,2013-11-03 13:25:00,
2013-11-03 07:30:00,21.4,18.7,30.38,NNW,343,0.0,0.0,89,0.00,,,0.00,Wunderground v.1.15,2013-11-03 13:30:00,
2013-11-03 07:35:00,21.6,18.9,30.38,NNW,343,0.0,0.0,89,0.00,,,0.00,Wunderground v.1.15,2013-11-03 13:35:00,
2013-11-03 07:40:00,22.0,19.3,30.38,NNW,342,0.0,0.0,89,0.00,,,0.00,Wunderground v.1.15,2013-11-03 13:40:00,
2013-11-03 07:50:00,22.8,20.0,30.38,NNW,343,0.0,0.0,89,0.00,,,0.00,Wunderground v.1.15,2013-11-03 13:50:00,
2013-11-03 07:55:00,23.1,20.3,30.39,NNW,343,0.0,0.0,89,0.00,,,0.00,Wunderground v.1.15,2013-11-03 13:55:00,
2013-11-03 08:00:00,23.6,20.8,30.39,NNW,343,0.0,0.0,89,0.00,,,0.00,Wunderground v.1.15,2013-11-03 14:00:00,
2013-11-03 08:05:00,24.3,21.5,30.40,NNW,342,0.0,0.0,89,0.00,,,0.00,Wunderground v.1.15,2013-11-03 14:05:00,
2013-11-03 08:15:00,25.7,22.9,30.39,NNW,342,0.0,0.0,89,0.00,,,0.00,Wunderground v.1.15,2013-11-03 14:15:00,
2013-11-03 08:20:00,26.5,23.7,30.39,NNW,343,0.0,0.0,89,0.00,,,0.00,Wunderground v.1.15,2013-11-03 14:20:00,
2013-11-03 08:30:00,28.4,25.6,30.39,NNW,343,0.0,0.0,89,0.00,,,0.00,Wunderground v.1.15,2013-11-03 14:30:00,
2013-11-03 08:35:00,29.9,26.8,30.39,NNW,343,0.0,0.0,88,0.00,,,0.00,Wunderground v.1.15,2013-11-03 14:35:00,
2013-11-03 08:40:00,31.9,28.8,30.38,NNW,342,0.0,0.0,88,0.00,,,0.00,Wunderground v.1.15,2013-11-03 14:40:00,
2013-11-03 08:45:00,33.3,30.1,30.39,WSW,251,0.0,0.0,88,0.00,,,0.01,Wunderground v.1.15,2013-11-03 14:45:00,
2013-11-03 08:55:00,34.8,31.6,30.39,WSW,247,0.0,1.0,88,0.00,,,0.01,Wunderground v.1.15,2013-11-03 14:55:00,
2013-11-03 09:00:00,35.3,32.1,30.39,WSW,247,0.0,0.0,88,0.00,,,0.01,Wunderground v.1.15,2013-11-03 15:00:00,
2013-11-03 09:05:00,36.2,33.0,30.39,WSW,244,0.0,2.0,88,0.00,,,0.01,Wunderground v.1.15,2013-11-03 15:05:00,
2013-11-03 09:15:00,37.7,34.5,30.39,South,183,1.0,1.0,88,0.00,,,0.01,Wunderground v.1.15,2013-11-03 15:15:00,
2013-11-03 09:20:00,38.3,35.1,30.39,South,182,1.0,1.0,88,0.00,,,0.01,Wunderground v.1.15,2013-11-03 15:20:00,
2013-11-03 09:25:00,38.6,35.4,30.39,South,182,0.0,1.0,88,0.00,,,0.01,Wunderground v.1.15,2013-11-03 15:25:00,
2013-11-03 09:30:00,38.8,35.6,30.39,South,180,0.0,0.0,88,0.00,,,0.01,Wunderground v.1.15,2013-11-03 15:30:00,
2013-11-03 09:35:00,39.2,35.9,30.39,SE,126,0.0,0.0,88,0.00,,,0.01,Wunderground v.1.15,2013-11-03 15:35:00,
2013-11-03 09:45:00,39.8,36.2,30.39,SSE,157,1.0,4.0,87,0.00,,,0.01,Wunderground v.1.15,2013-11-03 15:45:00,
2013-11-03 09:55:00,41.6,37.7,30.39,SSE,165,1.0,2.0,86,0.00,,,0.01,Wunderground v.1.15,2013-11-03 15:55:00,
2013-11-03 10:00:00,42.5,38.3,30.39,SSE,164,1.0,4.0,85,0.00,,,0.01,Wunderground v.1.15,2013-11-03 16:00:00,
2013-11-03 10:05:00,43.5,38.7,30.39,South,178,1.0,4.0,83,0.00,,,0.01,Wunderground v.1.15,2013-11-03 16:05:00,
2013-11-03 10:15:00,45.0,39.5,30.38,SSE,167,2.0,2.0,81,0.00,,,0.01,Wunderground v.1.15,2013-11-03 16:15:00,
2013-11-03 10:20:00,45.8,39.7,30.38,South,178,2.0,5.0,79,0.00,,,0.01,Wunderground v.1.15,2013-11-03 16:20:00,
2013-11-03 10:25:00,46.1,39.6,30.38,South,169,2.0,5.0,78,0.00,,,0.01,Wunderground v.1.15,2013-11-03 16:25:00,
2013-11-03 10:30:00,47.1,39.6,30.37,South,182,2.0,2.0,75,0.00,,,0.01,Wunderground v.1.15,2013-11-03 16:30:00,
2013-11-03 10:35:00,47.4,39.5,30.37,South,170,1.0,2.0,74,0.00,,,0.01,Wunderground v.1.15,2013-11-03 16:35:00,
2013-11-03 10:45:00,48.3,38.6,30.38,SE,137,2.0,2.0,69,0.00,,,0.01,Wunderground v.1.15,2013-11-03 16:45:00,
2013-11-03 10:50:00,48.5,38.4,30.38,SE,146,3.0,3.0,68,0.00,,,0.01,Wunderground v.1.15,2013-11-03 16:50:00,
2013-11-03 10:55:00,49.1,38.6,30.38,SSE,158,2.0,3.0,67,0.00,,,0.01,Wunderground v.1.15,2013-11-03 16:55:00,
2013-11-03 11:00:00,49.2,38.7,30.37,SSE,168,2.0,2.0,67,0.00,,,0.01,Wunderground v.1.15,2013-11-03 17:00:00,
2013-11-03 11:05:00,49.2,37.9,30.37,South,184,3.0,5.0,65,0.00,,,0.01,Wunderground v.1.15,2013-11-03 17:05:00,
2013-11-03 11:15:00,49.0,36.9,30.37,SSE,151,4.0,5.0,63,0.00,,,0.01,Wunderground v.1.15,2013-11-03 17:15:00,
2013-11-03 11:20:00,49.5,37.4,30.36,SSE,156,3.0,5.0,63,0.00,,,0.01,Wunderground v.1.15,2013-11-03 17:20:00,
2013-11-03 11:30:00,49.6,35.8,30.36,SSE,167,5.0,5.0,59,0.00,,,0.01,Wunderground v.1.15,2013-11-03 17:30:00,
2013-11-03 11:35:00,49.9,37.4,30.36,South,171,5.0,5.0,62,0.00,,,0.01,Wunderground v.1.15,2013-11-03 17:35:00,
2013-11-03 11:40:00,50.6,37.2,30.36,SE,138,3.0,5.0,60,0.00,,,0.01,Wunderground v.1.15,2013-11-03 17:40:00,
2013-11-03 11:45:00,50.6,36.8,30.36,SSE,167,4.0,6.0,59,0.00,,,0.01,Wunderground v.1.15,2013-11-03 17:45:00,
2013-11-03 11:50:00,51.0,38.0,30.35,SSE,163,3.0,3.0,61,0.00,,,0.01,Wunderground v.1.15,2013-11-03 17:50:00,
2013-11-03 11:55:00,51.0,36.3,30.35,SSE,165,3.0,6.0,57,0.00,,,0.01,Wunderground v.1.15,2013-11-03 17:55:00,
2013-11-03 12:00:00,50.5,36.3,30.35,SSE,165,5.0,5.0,58,0.00,,,0.01,Wunderground v.1.15,2013-11-03 18:00:00,
2013-11-03 12:05:00,50.8,37.0,30.35,South,179,4.0,11.0,59,0.00,,,0.01,Wunderground v.1.15,2013-11-03 18:05:00,
2013-11-03 12:15:00,50.9,36.2,30.34,SSE,165,4.0,8.0,57,0.00,,,0.01,Wunderground v.1.15,2013-11-03 18:15:00,
2013-11-03 12:20:00,50.5,36.3,30.34,SSE,166,4.0,4.0,58,0.00,,,0.01,Wunderground v.1.15,2013-11-03 18:20:00,
2013-11-03 12:30:00,50.4,36.6,30.34,SSE,149,5.0,5.0,59,0.00,,,0.01,Wunderground v.1.15,2013-11-03 18:30:00,
2013-11-03 12:35:00,50.6,35.9,30.33,SE,144,4.0,5.0,57,0.00,,,0.01,Wunderground v.1.15,2013-11-03 18:35:00,
2013-11-03 12:40:00,50.5,35.8,30.33,South,186,4.0,8.0,57,0.00,,,0.01,Wunderground v.1.15,2013-11-03 18:40:00,
2013-11-03 12:45:00,50.9,37.1,30.32,SSE,160,4.0,8.0,59,0.00,,,0.01,Wunderground v.1.15,2013-11-03 18:45:00,
2013-11-03 12:50:00,51.9,37.1,30.32,SE,145,3.0,8.0,57,0.00,,,0.01,Wunderground v.1.15,2013-11-03 18:50:00,
2013-11-03 13:00:00,51.7,36.9,30.32,SE,144,4.0,4.0,57,0.00,,,0.01,Wunderground v.1.15,2013-11-03 19:00:00,
2013-11-03 13:05:00,52.4,37.2,30.32,SSE,163,2.0,7.0,56,0.00,,,0.01,Wunderground v.1.15,2013-11-03 19:05:00,
2013-11-03 13:15:00,52.2,36.0,30.31,SSE,163,4.0,8.0,54,0.00,,,0.01,Wunderground v.1.15,2013-11-03 19:15:00,
2013-11-03 13:20:00,51.7,36.5,30.31,South,173,5.0,6.0,56,0.00,,,0.01,Wunderground v.1.15,2013-11-03 19:20:00,
2013-11-03 13:25:00,51.9,35.3,30.31,SE,132,4.0,6.0,53,0.00,,,0.01,Wunderground v.1.15,2013-11-03 19:25:00,
2013-11-03 13:30:00,51.5,35.4,30.31,South,180,5.0,9.0,54,0.00,,,0.01,Wunderground v.1.15,2013-11-03 19:30:00,
2013-11-03 13:35:00,51.2,35.6,30.31,SSE,159,6.0,9.0,55,0.00,,,0.01,Wunderground v.1.15,2013-11-03 19:35:00,
2013-11-03 13:45:00,51.5,35.9,30.30,SSE,160,4.0,5.0,55,0.00,,,0.01,Wunderground v.1.15,2013-11-03 19:45:00,
2013-11-03 13:50:00,51.7,36.0,30.30,SSE,156,3.0,7.0,55,0.00,,,0.01,Wunderground v.1.15,2013-11-03 19:50:00,
2013-11-03 13:55:00,51.5,37.2,30.30,SSE,155,3.0,7.0,58,0.00,,,0.01,Wunderground v.1.15,2013-11-03 19:55:00,
2013-11-03 14:00:00,51.6,36.9,30.30,ESE,111,4.0,4.0,57,0.00,,,0.01,Wunderground v.1.15,2013-11-03 20:00:00,
2013-11-03 14:05:00,52.0,37.7,30.29,SSE,159,3.0,4.0,58,0.00,,,0.01,Wunderground v.1.15,2013-11-03 20:05:00,
2013-11-03 14:15:00,51.5,36.8,30.29,South,171,3.0,6.0,57,0.00,,,0.01,Wunderground v.1.15,2013-11-03 20:15:00,
2013-11-03 14:20:00,51.5,36.3,30.29,SSE,159,3.0,4.0,56,0.00,,,0.01,Wunderground v.1.15,2013-11-03 20:20:00,
2013-11-03 14:25:00,51.4,36.2,30.29,ESE,119,3.0,5.0,56,0.00,,,0.01,Wunderground v.1.15,2013-11-03 20:25:00,
2013-11-03 14:35:00,51.1,35.9,30.29,SSE,148,2.0,6.0,56,0.00,,,0.01,Wunderground v.1.15,2013-11-03 20:35:00,
2013-11-03 14:40:00,50.6,35.0,30.30,South,173,3.0,8.0,55,0.00,,,0.01,Wunderground v.1.15,2013-11-03 20:40:00,
2013-11-03 14:45:00,50.2,35.1,30.30,SSE,159,5.0,8.0,56,0.00,,,0.01,Wunderground v.1.15,2013-11-03 20:45:00,
2013-11-03 14:50:00,50.2,35.5,30.29,South,172,4.0,8.0,57,0.00,,,0.01,Wunderground v.1.15,2013-11-03 20:50:00,
2013-11-03 14:55:00,50.2,35.1,30.29,SSE,157,4.0,8.0,56,0.00,,,0.01,Wunderground v.1.15,2013-11-03 20:55:00,
2013-11-03 15:05:00,50.5,35.8,30.29,SSE,149,6.0,7.0,57,0.00,,,0.01,Wunderground v.1.15,2013-11-03 21:05:00,
2013-11-03 15:15:00,50.2,36.0,30.29,SE,141,4.0,5.0,58,0.00,,,0.01,Wunderground v.1.15,2013-11-03 21:15:00,
2013-11-03 15:20:00,50.0,35.8,30.29,SSE,149,3.0,6.0,58,0.00,,,0.01,Wunderground v.1.15,2013-11-03 21:20:00,
2013-11-03 15:25:00,49.8,36.0,30.29,South,172,3.0,6.0,59,0.00,,,0.01,Wunderground v.1.15,2013-11-03 21:25:00,
2013-11-03 15:30:00,49.6,36.3,30.29,SE,145,2.0,2.0,60,0.00,,,0.01,Wunderground v.1.15,2013-11-03 21:30:00,
2013-11-03 15:35:00,49.2,36.3,30.29,South,179,1.0,2.0,61,0.00,,,0.01,Wunderground v.1.15,2013-11-03 21:35:00,
2013-11-03 15:40:00,49.0,35.7,30.29,SSE,155,2.0,2.0,60,0.00,,,0.01,Wunderground v.1.15,2013-11-03 21:40:00,
2013-11-03 15:50:00,48.7,36.3,30.28,SSE,159,2.0,2.0,62,0.00,,,0.01,Wunderground v.1.15,2013-11-03 21:50:00,
2013-11-03 15:55:00,48.5,36.5,30.28,SSE,163,1.0,2.0,63,0.00,,,0.01,Wunderground v.1.15,2013-11-03 21:55:00,
2013-11-03 16:00:00,48.3,36.3,30.28,SSE,157,1.0,1.0,63,0.00,,,0.01,Wunderground v.1.15,2013-11-03 22:00:00,
2013-11-03 16:05:00,48.3,36.3,30.28,South,173,1.0,5.0,63,0.00,,,0.01,Wunderground v.1.15,2013-11-03 22:05:00,
2013-11-03 16:15:00,47.9,36.3,30.28,SSE,167,1.0,4.0,64,0.00,,,0.01,Wunderground v.1.15,2013-11-03 22:15:00,
2013-11-03 16:20:00,47.6,36.4,30.28,SSE,166,0.0,0.0,65,0.00,,,0.01,Wunderground v.1.15,2013-11-03 22:20:00,
2013-11-03 16:25:00,47.4,36.6,30.28,SSE,166,0.0,2.0,66,0.00,,,0.01,Wunderground v.1.15,2013-11-03 22:25:00,
2013-11-03 16:35:00,47.1,36.7,30.27,SSE,166,1.0,1.0,67,0.00,,,0.01,Wunderground v.1.15,2013-11-03 22:35:00,
2013-11-03 16:40:00,46.9,36.9,30.27,SSE,166,0.0,0.0,68,0.00,,,0.01,Wunderground v.1.15,2013-11-03 22:40:00,
2013-11-03 16:45:00,46.7,37.1,30.27,SSE,165,0.0,0.0,69,0.00,,,0.01,Wunderground v.1.15,2013-11-03 22:45:00,
2013-11-03 16:50:00,46.4,36.8,30.27,SSE,165,0.0,0.0,69,0.00,,,0.01,Wunderground v.1.15,2013-11-03 22:50:00,
2013-11-03 16:55:00,46.2,37.0,30.27,SSE,166,0.0,2.0,70,0.00,,,0.01,Wunderground v.1.15,2013-11-03 22:55:00,
2013-11-03 17:00:00,45.9,36.7,30.26,SSE,166,0.0,0.0,70,0.00,,,0.01,Wunderground v.1.15,2013-11-03 23:00:00,
2013-11-03 17:05:00,45.6,36.7,30.26,SSE,166,0.0,0.0,71,0.00,,,0.01,Wunderground v.1.15,2013-11-03 23:05:00,
2013-11-03 17:15:00,45.2,36.7,30.26,South,171,0.0,0.0,72,0.00,,,0.01,Wunderground v.1.15,2013-11-03 23:15:00,
2013-11-03 17:20:00,45.0,36.5,30.26,South,171,0.0,0.0,72,0.00,,,0.01,Wunderground v.1.15,2013-11-03 23:20:00,
2013-11-03 17:30:00,44.5,36.4,30.27,South,171,0.0,0.0,73,0.00,,,0.01,Wunderground v.1.15,2013-11-03 23:30:00,
2013-11-03 17:35:00,44.3,36.2,30.27,South,171,0.0,0.0,73,0.00,,,0.01,Wunderground v.1.15,2013-11-03 23:35:00,
2013-11-03 17:40:00,44.2,36.4,30.27,South,175,0.0,0.0,74,0.00,,,0.01,Wunderground v.1.15,2013-11-03 23:40:00,
2013-11-03 17:45:00,44.1,36.3,30.27,SSE,156,0.0,0.0,74,0.00,,,0.01,Wunderground v.1.15,2013-11-03 23:45:00,
2013-11-03 17:50:00,44.0,36.2,30.27,SSE,157,0.0,0.0,74,0.00,,,0.01,Wunderground v.1.15,2013-11-03 23:50:00,
2013-11-03 17:55:00,44.0,36.2,30.27,SSE,156,0.0,0.0,74,0.00,,,0.01,Wunderground v.1.15,2013-11-03 23:55:00,
2013-11-03 18:05:00,43.6,36.2,30.26,SSE,156,0.0,0.0,75,0.00,,,0.01,Wunderground v.1.15,2013-11-04 00:05:00,
2013-11-03 18:15:00,43.5,36.4,30.26,SSE,156,0.0,0.0,76,0.00,,,0.01,Wunderground v.1.15,2013-11-04 00:15:00,
2013-11-03 18:20:00,43.5,36.4,30.26,SSE,156,0.0,0.0,76,0.00,,,0.01,Wunderground v.1.15,2013-11-04 00:20:00,
2013-11-03 18:30:00,43.5,36.4,30.26,SSE,157,1.0,1.0,76,0.00,,,0.01,Wunderground v.1.15,2013-11-04 00:30:00,
2013-11-03 18:35:00,43.5,36.4,30.27,SE,144,1.0,1.0,76,0.00,,,0.01,Wunderground v.1.15,2013-11-04 00:35:00,
2013-11-03 18:40:00,43.3,36.2,30.27,SE,145,0.0,0.0,76,0.00,,,0.01,Wunderground v.1.15,2013-11-04 00:40:00,
2013-11-03 18:45:00,43.2,36.1,30.27,South,175,0.0,2.0,76,0.00,,,0.01,Wunderground v.1.15,2013-11-04 00:45:00,
2013-11-03 18:50:00,43.2,36.5,30.27,SSE,159,1.0,1.0,77,0.00,,,0.01,Wunderground v.1.15,2013-11-04 00:50:00,
2013-11-03 19:00:00,42.9,36.2,30.27,SSE,159,0.0,0.0,77,0.00,,,0.01,Wunderground v.1.15,2013-11-04 01:00:00,
2013-11-03 19:05:00,42.7,36.3,30.27,SSE,159,0.0,2.0,78,0.00,,,0.01,Wunderground v.1.15,2013-11-04 01:05:00,
2013-11-03 19:15:00,42.6,36.2,30.27,SSE,157,1.0,4.0,78,0.00,,,0.01,Wunderground v.1.15,2013-11-04 01:15:00,
2013-11-03 19:20:00,42.5,36.4,30.27,SE,140,1.0,1.0,79,0.00,,,0.01,Wunderground v.1.15,2013-11-04 01:20:00,
2013-11-03 19:25:00,42.4,36.3,30.27,SSE,159,1.0,1.0,79,0.00,,,0.01,Wunderground v.1.15,2013-11-04 01:25:00,
2013-11-03 19:30:00,42.4,36.3,30.27,SSE,156,0.0,2.0,79,0.00,,,0.01,Wunderground v.1.15,2013-11-04 01:30:00,
2013-11-03 19:35:00,42.5,36.4,30.26,SSE,164,1.0,2.0,79,0.00,,,0.01,Wunderground v.1.15,2013-11-04 01:35:00,
2013-11-03 19:40:00,42.4,36.3,30.27,SSE,164,1.0,1.0,79,0.00,,,0.01,Wunderground v.1.15,2013-11-04 01:40:00,
2013-11-03 19:45:00,42.3,36.6,30.27,SSE,164,0.0,1.0,80,0.00,,,0.01,Wunderground v.1.15,2013-11-04 01:45:00,
2013-11-03 19:50:00,42.3,36.6,30.28,South,181,0.0,0.0,80,0.00,,,0.01,Wunderground v.1.15,2013-11-04 01:50:00,
2013-11-03 19:55:00,42.2,36.5,30.27,South,181,0.0,0.0,80,0.00,,,0.01,Wunderground v.1.15,2013-11-04 01:55:00,
2013-11-03 20:05:00,42.3,36.6,30.27,South,179,0.0,1.0,80,0.00,,,0.01,Wunderground v.1.15,2013-11-04 02:05:00,
2013-11-03 20:15:00,42.0,36.3,30.28,South,180,0.0,0.0,80,0.00,,,0.01,Wunderground v.1.15,2013-11-04 02:15:00,
2013-11-03 20:20:00,41.8,36.1,30.28,South,179,0.0,0.0,80,0.00,,,0.01,Wunderground v.1.15,2013-11-04 02:20:00,
2013-11-03 20:30:00,41.8,36.4,30.27,South,180,0.0,0.0,81,0.00,,,0.01,Wunderground v.1.15,2013-11-04 02:30:00,
2013-11-03 20:35:00,41.8,36.4,30.27,South,178,0.0,0.0,81,0.00,,,0.01,Wunderground v.1.15,2013-11-04 02:35:00,
2013-11-03 20:40:00,41.8,36.4,30.27,South,178,0.0,0.0,81,0.00,,,0.01,Wunderground v.1.15,2013-11-04 02:40:00,
2013-11-03 20:45:00,41.8,36.4,30.27,SE,129,0.0,0.0,81,0.00,,,0.01,Wunderground v.1.15,2013-11-04 02:45:00,
2013-11-03 20:55:00,41.8,36.4,30.28,SSE,165,0.0,0.0,81,0.00,,,0.01,Wunderground v.1.15,2013-11-04 02:55:00,
2013-11-03 21:00:00,41.9,36.5,30.28,South,171,0.0,2.0,81,0.00,,,0.01,Wunderground v.1.15,2013-11-04 03:00:00,
2013-11-03 21:05:00,42.0,36.6,30.28,South,171,1.0,2.0,81,0.00,,,0.01,Wunderground v.1.15,2013-11-04 03:05:00,
2013-11-03 21:15:00,42.1,36.7,30.28,SSE,165,0.0,0.0,81,0.00,,,0.01,Wunderground v.1.15,2013-11-04 03:15:00,
2013-11-03 21:20:00,42.2,36.8,30.28,SSE,165,0.0,2.0,81,0.00,,,0.01,Wunderground v.1.15,2013-11-04 03:20:00,
2013-11-03 21:25:00,42.2,36.5,30.28,SSE,156,1.0,2.0,80,0.00,,,0.01,Wunderground v.1.15,2013-11-04 03:25:00,
2013-11-03 21:30:00,42.1,36.4,30.28,SSE,147,1.0,1.0,80,0.00,,,0.01,Wunderground v.1.15,2013-11-04 03:30:00,
2013-11-03 21:35:00,41.9,36.2,30.28,SE,146,1.0,1.0,80,0.00,,,0.01,Wunderground v.1.15,2013-11-04 03:35:00,
2013-11-03 21:45:00,41.8,36.4,30.28,SSE,168,0.0,0.0,81,0.00,,,0.01,Wunderground v.1.15,2013-11-04 03:45:00,
2013-11-03 21:50:00,41.8,36.4,30.28,South,171,0.0,0.0,81,0.00,,,0.01,Wunderground v.1.15,2013-11-04 03:50:00,
2013-11-03 21:55:00,41.9,36.5,30.28,South,171,1.0,1.0,81,0.00,,,0.01,Wunderground v.1.15,2013-11-04 03:55:00,
2013-11-03 22:00:00,41.9,36.5,30.28,SSE,159,1.0,1.0,81,0.00,,,0.01,Wunderground v.1.15,2013-11-04 04:00:00,
2013-11-03 22:05:00,41.8,36.4,30.28,SE,142,0.0,1.0,81,0.00,,,0.01,Wunderground v.1.15,2013-11-04 04:05:00,
2013-11-03 22:15:00,41.5,36.1,30.27,SE,144,0.0,0.0,81,0.00,,,0.01,Wunderground v.1.15,2013-11-04 04:15:00,
2013-11-03 22:20:00,41.4,36.0,30.27,SE,144,0.0,0.0,81,0.00,,,0.01,Wunderground v.1.15,2013-11-04 04:20:00,
2013-11-03 22:25:00,41.1,36.0,30.27,SE,136,0.0,0.0,82,0.00,,,0.01,Wunderground v.1.15,2013-11-04 04:25:00,
2013-11-03 22:35:00,40.9,36.1,30.28,SSE,167,0.0,0.0,83,0.00,,,0.01,Wunderground v.1.15,2013-11-04 04:35:00,
2013-11-03 22:40:00,40.9,36.1,30.28,SSE,167,0.0,0.0,83,0.00,,,0.01,Wunderground v.1.15,2013-11-04 04:40:00,
2013-11-03 22:45:00,40.8,36.0,30.28,SSE,167,0.0,0.0,83,0.00,,,0.01,Wunderground v.1.15,2013-11-04 04:45:00,
2013-11-03 22:50:00,40.7,35.9,30.28,SSE,168,0.0,0.0,83,0.00,,,0.01,Wunderground v.1.15,2013-11-04 04:50:00,
2013-11-03 22:55:00,40.8,36.0,30.28,SE,145,0.0,0.0,83,0.00,,,0.01,Wunderground v.1.15,2013-11-04 04:55:00,
2013-11-03 23:05:00,40.7,35.9,30.28,SE,145,0.0,0.0,83,0.00,,,0.01,Wunderground v.1.15,2013-11-04 05:05:00,
2013-11-03 23:15:00,40.8,36.0,30.28,SE,126,0.0,2.0,83,0.00,,,0.01,Wunderground v.1.15,2013-11-04 05:15:00,
2013-11-03 23:20:00,40.9,36.1,30.28,SE,141,0.0,0.0,83,0.00,,,0.01,Wunderground v.1.15,2013-11-04 05:20:00,
2013-11-03 23:25:00,41.0,36.2,30.28,SSE,153,0.0,0.0,83,0.00,,,0.01,Wunderground v.1.15,2013-11-04 05:25:00,
2013-11-03 23:30:00,40.9,36.1,30.28,SSE,154,0.0,0.0,83,0.00,,,0.01,Wunderground v.1.15,2013-11-04 05:30:00,
2013-11-03 23:35:00,40.9,36.1,30.28,SSE,164,0.0,2.0,83,0.00,,,0.01,Wunderground v.1.15,2013-11-04 05:35:00,
2013-11-03 23:40:00,41.0,36.2,30.28,SSE,165,1.0,1.0,83,0.00,,,0.01,Wunderground v.1.15,2013-11-04 05:40:00,
2013-11-03 23:45:00,41.1,36.0,30.28,SSE,164,1.0,1.0,82,0.00,,,0.01,Wunderground v.1.15,2013-11-04 05:45:00,
2013-11-03 23:55:00,41.3,36.2,30.28,SSE,159,1.0,1.0,82,0.00,,,0.01,Wunderground v.1.15,2013-11-04 05:55:00,